STARLINK-36985, 68014

Orbit data source: Space-Track

STARLINK-36985, 68014 is a payload satellite owned by SpaceX/Seattle (US) in LEO that was launched on Fri, 27 Feb 2026 UTC via an FALCON 9 launch vehicle from the Air Force Eastern Test Range (AFETR). Payload-class satellites include a variety of spacecraft equipped with specific instruments for various scientific and technological missions. These include communications satellites like Starlink; space stations such as the ISS; scientific satellites like the Hubble; Earth observation satellites from companies like Planet Labs, Umbra, and HawkEye 360; GPS; miniature CubeSats for education and research; and military/defense satellites.

Loading next visibility...
Identifier
68014, 2026-039AE
Orbit
LEO
Country
Flag of USUS
Related business
Manufacturer
SpaceX/Seattle
Mission
Operational Commercial Communications
Bus & Motor
STARLINK V2MO, Unknown motor
Mass
575 kg wet, ~530 kg dry
Launch date (UTC)
2026-02-27 (2 months ago)
Launch vehicle
FALCON 9
Launch site
Air Force Eastern Test Range (AFETR)
Object type
Payload
Rocket body
Debris
Shape & HBR
Box + 2 Pan, 17.7 m
Radar Cross Section
36.964 m²

Expand to show TLE details & history
Last TLE update: 10 hours ago

TLE from 10 hours ago
0 STARLINK-36985
1 68014U 26039AE  26119.27922537  .00023332  00000-0  85467-3 0  9991
2 68014  43.0009 122.9259 0001708 263.5285  96.5372 15.27580774  9449
Epoch: 2026-04-29T06:42Z
TLE epoch observation values (Epoch: 2026-04-29T06:42:05.071Z)
Latitude
-0.00005°
Longitude
165.16225°
Altitude
482.956 km
Speed
7.626 km/s
True Right ascension
08h 11m 42s
True Declination
0° 00' 00"
Sunlit
Object was in daylight at epoch
Visualization orbit readout
Latitude
Unknown
Longitude
Unknown
Altitude
Unknown
Speed
Unknown
Apparent Right ascension
Unknown
Apparent Declination
Unknown
Sunlit
N/A
Visualization observer readout
Local Sidereal Time
00:00:46
Azimuth
Unknown
Elevation
Unknown
Doppler factor
Unknown
Orbital elements
Apogee altitude
486.164 km
Perigee altitude
483.82 km
Semi-major axis
6,863.129 km
Eccentricity
0.00017
Inclination
43.0009°
RAAN
122.9259°
Arg. of periapsis
263.5285°
True anomaly
96.55664°
Mean anomaly
96.5372°
Eccentric anomaly
96.54692°
Mean motion
3.81733 °/min
Orbital period
94.31 mins
BSTAR
0.00085467
Loading maneuver chart data...
Computing Atmospheric mass density...
Loading historical data...
Loading historical data...
Loading historical data...
Loading historical data...
Loading historical data...
Loading historical data...
Loading historical data...

Documentation

Showing up to 5 results
|